Simultaneous Nadir Overpasses (SNOs) Predictions

Prediction of SNOs between METOP-B and TERRA Satellite Orbit:

Table of predicted SNOs for the next 14.0 days since TLE Epoch: 3/19/2016
Index Date (METOP-B) Time (METOP-B) Lat,Lon (METOP-B) SZA (METOP-B ) Date (TERRA) Time (TERRA) Lat,Lon (TERRA) SZA (TERRA ) Distance(km) Time Diff (sec)
1 03/19/2016 17:35:06 -81.31, 143.72 95.93 03/19/2016 17:35:52 -81.32, 143.81 95.89 1.75 46
2 03/19/2016 18:25:46 81.32, -48.64 84.10 03/19/2016 18:25:18 81.32, -48.48 84.11 2.73 28
3 03/22/2016 13:09:28 -81.32,-149.65 96.98 03/22/2016 13:10:07 -81.32,-149.80 96.98 2.45 39
4 03/22/2016 14:00:08 81.32, 17.95 83.04 03/22/2016 13:59:33 81.32, 17.88 83.02 1.18 35
5 03/25/2016 08:43:52 -81.31, -83.42 98.08 03/25/2016 08:44:23 -81.31, -83.57 98.09 2.63 31
6 03/
